| time (UTC) | temp F | wind direction | speed MPH | gust MPH | rain 1hr in | rain 24hr in | rain mn in | humidity % | barometer mb |
| 20260509184123 | 85 | 347 | 4.0 | 9.0 | 0.00 | 0.00 | 0.00 | 40 | 1013.4 |
| 20260509183402 | 85 | 14 | 4.0 | 9.0 | 0.00 | 0.00 | 0.00 | 39 | 1013.4 |
| 20260509182903 | 85 | 348 | 3.0 | 6.0 | 0.00 | 0.00 | 0.00 | 41 | 1013.4 |
| 20260509182402 | 85 | 71 | 2.0 | 6.0 | 0.00 | 0.00 | 0.00 | 41 | 1013.4 |
| 20260509181855 | 84 | 64 | 2.0 | 5.0 | 0.00 | 0.00 | 0.00 | 42 | 1013.4 |
| 20260509181609 | 84 | 78 | 3.0 | 9.0 | 0.00 | 0.00 | 0.00 | 42 | 1013.5 |
| 20260509180851 | 84 | 92 | 3.0 | 9.0 | 0.00 | 0.00 | 0.00 | 43 | 1013.6 |
| 20260509180349 | 83 | 92 | 2.0 | 6.0 | 0.00 | 0.00 | 0.00 | 43 | 1013.6 |
| 20260509175847 | 83 | 0 | 2.0 | 5.0 | 0.00 | 0.00 | 0.00 | 43 | 1013.7 |
| 20260509175603 | 82 | 333 | 2.0 | 6.0 | 0.00 | 0.00 | 0.00 | 43 | 1013.7 |
| 20260509174840 | 82 | 296 | 3.0 | 8.0 | 0.00 | 0.00 | 0.00 | 44 | 1013.7 |
| 20260509174340 | 81 | 315 | 3.0 | 8.0 | 0.00 | 0.00 | 0.00 | 44 | 1013.6 |
| 20260509173838 | 81 | 355 | 3.0 | 5.0 | 0.00 | 0.00 | 0.00 | 44 | 1013.7 |
| 20260509173607 | 81 | 326 | 2.0 | 5.0 | 0.00 | 0.00 | 0.00 | 46 | 1013.6 |
| 20260509172837 | 80 | 59 | 2.0 | 5.0 | 0.00 | 0.00 | 0.00 | 47 | 1013.6 |
| 20260509172559 | 80 | 76 | 2.0 | 5.0 | 0.00 | 0.00 | 0.00 | 48 | 1013.6 |
| 20260509171835 | 79 | 36 | 2.0 | 5.0 | 0.00 | 0.00 | 0.00 | 47 | 1013.6 |
| 20260509171553 | 79 | 283 | 1.0 | 4.0 | 0.00 | 0.00 | 0.00 | 49 | 1013.7 |
| 20260509170830 | 77 | 343 | 1.0 | 4.0 | 0.00 | 0.00 | 0.00 | 51 | 1013.7 |
| 20260509170331 | 76 | 343 | 2.0 | 6.0 | 0.00 | 0.00 | 0.00 | 50 | 1013.7 |
| 20260509165830 | 75 | 338 | 2.0 | 6.0 | 0.00 | 0.00 | 0.00 | 53 | 1013.8 |
| 20260509165330 | 75 | 296 | 2.0 | 6.0 | 0.00 | 0.00 | 0.00 | 52 | 1013.8 |
| 20260509164830 | 74 | 13 | 2.0 | 6.0 | 0.00 | 0.00 | 0.00 | 54 | 1013.9 |
| 20260509164329 | 74 | 43 | 2.0 | 5.0 | 0.00 | 0.00 | 0.00 | 54 | 1013.9 |
| 20260509163830 | 73 | 49 | 2.0 | 4.0 | 0.00 | 0.00 | 0.00 | 54 | 1013.9 |
| 20260509163816 | 73 | 46 | 1.0 | 4.0 | 0.00 | 0.00 | 0.00 | 55 | 1013.9 |
| 20260509162829 | 72 | 355 | 2.0 | 4.0 | 0.00 | 0.00 | 0.00 | 56 | 1013.9 |
| 20260509162327 | 71 | 28 | 2.0 | 4.0 | 0.00 | 0.00 | 0.00 | 57 | 1013.8 |
| 20260509161822 | 69 | 57 | 2.0 | 4.0 | 0.00 | 0.00 | 0.00 | 60 | 1013.8 |
| 20260509161545 | 69 | 17 | 2.0 | 4.0 | 0.00 | 0.00 | 0.00 | 60 | 1013.9 |
| 20260509160822 | 68 | 0 | 2.0 | 4.0 | 0.00 | 0.00 | 0.00 | 61 | 1013.9 |
| 20260509160322 | 68 | 344 | 2.0 | 4.0 | 0.00 | 0.00 | 0.00 | 61 | 1014.0 |
| 20260509155822 | 67 | 349 | 2.0 | 4.0 | 0.00 | 0.00 | 0.00 | 62 | 1013.9 |
| 20260509155323 | 67 | 336 | 1.0 | 3.0 | 0.00 | 0.00 | 0.00 | 63 | 1014.0 |
| 20260509154821 | 66 | 333 | 1.0 | 4.0 | 0.00 | 0.00 | 0.00 | 64 | 1013.9 |
| 20260509154320 | 66 | 12 | 1.0 | 4.0 | 0.00 | 0.00 | 0.00 | 64 | 1013.9 |
| 20260509153822 | 65 | 325 | 1.0 | 4.0 | 0.00 | 0.00 | 0.00 | 64 | 1013.9 |
| 20260509153321 | 65 | 355 | 1.0 | 3.0 | 0.00 | 0.00 | 0.00 | 66 | 1013.9 |
| 20260509152819 | 65 | 0 | 2.0 | 4.0 | 0.00 | 0.00 | 0.00 | 66 | 1013.9 |
| 20260509152320 | 64 | 5 | 2.0 | 5.0 | 0.00 | 0.00 | 0.00 | 68 | 1013.9 |
| 20260509152041 | 64 | 349 | 2.0 | 5.0 | 0.00 | 0.00 | 0.00 | 69 | 1013.9 |
| 20260509151317 | 63 | 14 | 2.0 | 5.0 | 0.00 | 0.00 | 0.00 | 70 | 1013.9 |
| 20260509150816 | 63 | 355 | 2.0 | 5.0 | 0.00 | 0.00 | 0.00 | 71 | 1013.8 |
| 20260509150316 | 62 | 212 | 2.0 | 5.0 | 0.00 | 0.00 | 0.00 | 71 | 1013.8 |
| 20260509145814 | 61 | 216 | 1.0 | 4.0 | 0.00 | 0.00 | 0.00 | 73 | 1013.7 |
| 20260509145314 | 60 | 219 | 2.0 | 5.0 | 0.00 | 0.00 | 0.00 | 73 | 1013.7 |
| 20260509145035 | 60 | 221 | 2.0 | 5.0 | 0.00 | 0.00 | 0.00 | 74 | 1013.7 |
| 20260509144310 | 60 | 200 | 3.0 | 5.0 | 0.00 | 0.00 | 0.00 | 75 | 1013.6 |
| 20260509144028 | 59 | 229 | 3.0 | 6.0 | 0.00 | 0.00 | 0.00 | 75 | 1013.6 |
| 20260509143308 | 59 | 220 | 3.0 | 6.0 | 0.00 | 0.00 | 0.00 | 75 | 1013.6 |
| 20260509143252 | 58 | 219 | 3.0 | 6.0 | 0.00 | 0.00 | 0.00 | 75 | 1013.6 |
| 20260509142307 | 58 | 208 | 2.0 | 4.0 | 0.00 | 0.00 | 0.00 | 75 | 1013.6 |
| 20260509141807 | 58 | 206 | 1.0 | 4.0 | 0.00 | 0.00 | 0.00 | 75 | 1013.7 |
| 20260509141305 | 58 | 215 | 1.0 | 3.0 | 0.00 | 0.00 | 0.00 | 75 | 1013.7 |
| 20260509140806 | 58 | 222 | 1.0 | 3.0 | 0.00 | 0.00 | 0.00 | 75 | 1013.7 |
| 20260509140307 | 57 | 225 | 1.0 | 3.0 | 0.00 | 0.00 | 0.00 | 75 | 1013.7 |
| 20260509135805 | 57 | 225 | 1.0 | 2.0 | 0.00 | 0.00 | 0.00 | 74 | 1013.8 |
| 20260509135306 | 57 | 225 | 0.0 | 2.0 | 0.00 | 0.00 | 0.00 | 74 | 1013.7 |
| 20260509135020 | 57 | 225 | 0.0 | 2.0 | 0.00 | 0.00 | 0.00 | 74 | 1013.8 |
| 20260509134301 | 57 | 225 | 0.0 | 3.0 | 0.00 | 0.00 | 0.00 | 74 | 1013.8 |
| 20260509133759 | 57 | 225 | 2.0 | 4.0 | 0.00 | 0.00 | 0.00 | 74 | 1013.7 |
| 20260509133252 | 57 | 225 | 2.0 | 4.0 | 0.00 | 0.00 | 0.00 | 74 | 1013.6 |
| 20260509132750 | 57 | 230 | 2.0 | 4.0 | 0.00 | 0.00 | 0.00 | 73 | 1013.6 |
| 20260509132249 | 57 | 233 | 2.0 | 4.0 | 0.00 | 0.00 | 0.00 | 73 | 1013.6 |
| 20260509131748 | 57 | 236 | 1.0 | 3.0 | 0.00 | 0.00 | 0.00 | 72 | 1013.5 |
| 20260509131248 | 58 | 238 | 1.0 | 3.0 | 0.00 | 0.00 | 0.00 | 72 | 1013.5 |
| 20260509130747 | 58 | 238 | 1.0 | 3.0 | 0.00 | 0.00 | 0.00 | 72 | 1013.4 |
| 20260509130248 | 58 | 238 | 2.0 | 3.0 | 0.00 | 0.00 | 0.00 | 72 | 1013.4 |
| 20260509125748 | 58 | 240 | 2.0 | 3.0 | 0.00 | 0.00 | 0.00 | 72 | 1013.3 |
| 20260509125248 | 58 | 241 | 2.0 | 4.0 | 0.00 | 0.00 | 0.00 | 72 | 1013.2 |
| 20260509124746 | 58 | 244 | 2.0 | 4.0 | 0.00 | 0.00 | 0.00 | 71 | 1013.2 |
| 20260509124246 | 58 | 255 | 2.0 | 4.0 | 0.00 | 0.00 | 0.00 | 71 | 1013.2 |
| 20260509123745 | 58 | 258 | 1.0 | 4.0 | 0.00 | 0.00 | 0.00 | 71 | 1013.3 |
| 20260509123245 | 58 | 258 | 1.0 | 4.0 | 0.00 | 0.00 | 0.00 | 70 | 1013.2 |
| 20260509122728 | 58 | 259 | 2.0 | 4.0 | 0.00 | 0.00 | 0.00 | 70 | 1013.2 |
| 20260509122455 | 58 | 261 | 1.0 | 4.0 | 0.00 | 0.00 | 0.00 | 69 | 1013.3 |
| 20260509121721 | 59 | 265 | 0.0 | 3.0 | 0.00 | 0.00 | 0.00 | 69 | 1013.3 |
| 20260509121218 | 59 | 265 | 0.0 | 2.0 | 0.00 | 0.00 | 0.00 | 69 | 1013.2 |
| 20260509120717 | 59 | 265 | 0.0 | 2.0 | 0.00 | 0.00 | 0.00 | 69 | 1013.2 |
| 20260509120218 | 59 | 265 | 0.0 | 2.0 | 0.00 | 0.00 | 0.00 | 69 | 1013.2 |
| 20260509115718 | 59 | 265 | 1.0 | 4.0 | 0.00 | 0.00 | 0.00 | 68 | 1013.2 |
| 20260509115218 | 59 | 265 | 2.0 | 4.0 | 0.00 | 0.00 | 0.00 | 68 | 1013.2 |
| 20260509114716 | 59 | 265 | 2.0 | 3.0 | 0.00 | 0.00 | 0.00 | 69 | 1013.2 |
| 20260509114438 | 59 | 265 | 2.0 | 4.0 | 0.00 | 0.00 | 0.00 | 69 | 1013.1 |
| 20260509113716 | 59 | 265 | 2.0 | 5.0 | 0.00 | 0.00 | 0.00 | 69 | 1013.2 |
| 20260509113216 | 58 | 252 | 1.0 | 5.0 | 0.00 | 0.00 | 0.00 | 69 | 1013.1 |
| 20260509112937 | 59 | 232 | 0.0 | 3.0 | 0.00 | 0.00 | 0.00 | 69 | 1013.2 |
| 20260509112213 | 59 | 232 | 1.0 | 3.0 | 0.00 | 0.00 | 0.00 | 69 | 1013.2 |
| 20260509111714 | 59 | 232 | 1.0 | 2.0 | 0.00 | 0.00 | 0.00 | 67 | 1013.2 |
| 20260509111210 | 60 | 232 | 1.0 | 4.0 | 0.00 | 0.00 | 0.00 | 67 | 1013.1 |
| 20260509110710 | 60 | 232 | 2.0 | 4.0 | 0.00 | 0.00 | 0.00 | 67 | 1013.1 |
| 20260509110208 | 60 | 230 | 1.0 | 3.0 | 0.00 | 0.00 | 0.00 | 67 | 1013.1 |
| 20260509105710 | 60 | 232 | 1.0 | 4.0 | 0.00 | 0.00 | 0.00 | 66 | 1013.1 |
| 20260509105209 | 60 | 232 | 1.0 | 4.0 | 0.00 | 0.00 | 0.00 | 66 | 1013.1 |
| 20260509104707 | 60 | 242 | 1.0 | 3.0 | 0.00 | 0.00 | 0.00 | 65 | 1013.1 |
| 20260509104204 | 61 | 242 | 1.0 | 3.0 | 0.00 | 0.00 | 0.00 | 64 | 1013.1 |
| 20260509103927 | 61 | 242 | 2.0 | 7.0 | 0.00 | 0.00 | 0.00 | 64 | 1013.1 |
| 20260509103203 | 61 | 244 | 3.0 | 7.0 | 0.00 | 0.00 | 0.00 | 64 | 1013.1 |
| 20260509102700 | 61 | 232 | 3.0 | 5.0 | 0.00 | 0.00 | 0.00 | 63 | 1013.0 |
| 20260509102157 | 62 | 244 | 2.0 | 6.0 | 0.00 | 0.00 | 0.00 | 63 | 1013.1 |
| 20260509101656 | 62 | 265 | 3.0 | 7.0 | 0.00 | 0.00 | 0.00 | 63 | 1013.1 |
| 20260509101153 | 62 | 273 | 5.0 | 10.0 | 0.00 | 0.00 | 0.00 | 62 | 1013.1 |
| 20260509100653 | 62 | 273 | 5.0 | 10.0 | 0.00 | 0.00 | 0.00 | 62 | 1013.1 |
| 20260509100144 | 62 | 257 | 4.0 | 9.0 | 0.00 | 0.00 | 0.00 | 61 | 1013.2 |
| 20260509095642 | 62 | 246 | 3.0 | 7.0 | 0.00 | 0.00 | 0.00 | 61 | 1013.2 |
| 20260509095627 | 62 | 283 | 5.0 | 8.0 | 0.00 | 0.00 | 0.00 | 61 | 1013.2 |
| 20260509094638 | 62 | 265 | 5.0 | 8.0 | 0.00 | 0.00 | 0.00 | 61 | 1013.2 |
| 20260509094422 | 62 | 276 | 4.0 | 8.0 | 0.00 | 0.00 | 0.00 | 61 | 1013.2 |
| 20260509093638 | 62 | 261 | 3.0 | 8.0 | 0.00 | 0.00 | 0.00 | 61 | 1013.2 |
| 20260509093135 | 62 | 216 | 3.0 | 7.0 | 0.00 | 0.00 | 0.00 | 61 | 1013.2 |
| 20260509092634 | 63 | 230 | 3.0 | 7.0 | 0.00 | 0.00 | 0.00 | 60 | 1013.2 |
| 20260509092134 | 63 | 245 | 3.0 | 7.0 | 0.00 | 0.00 | 0.00 | 60 | 1013.2 |
| 20260509091633 | 63 | 234 | 3.0 | 7.0 | 0.00 | 0.00 | 0.00 | 60 | 1013.3 |
| 20260509091401 | 63 | 237 | 3.0 | 7.0 | 0.00 | 0.00 | 0.00 | 60 | 1013.2 |
| 20260509090630 | 63 | 232 | 3.0 | 6.0 | 0.00 | 0.00 | 0.00 | 60 | 1013.2 |
| 20260509090127 | 63 | 218 | 4.0 | 9.0 | 0.00 | 0.00 | 0.00 | 59 | 1013.2 |
| 20260509085845 | 63 | 248 | 4.0 | 9.0 | 0.00 | 0.00 | 0.00 | 59 | 1013.2 |
| 20260509085126 | 63 | 243 | 3.0 | 9.0 | 0.00 | 0.00 | 0.00 | 60 | 1013.2 |
| 20260509084852 | 63 | 240 | 3.0 | 8.0 | 0.00 | 0.00 | 0.00 | 61 | 1013.2 |
| 20260509084125 | 63 | 225 | 3.0 | 7.0 | 0.00 | 0.00 | 0.00 | 61 | 1013.3 |
| 20260509083625 | 63 | 234 | 3.0 | 7.0 | 0.00 | 0.00 | 0.00 | 60 | 1013.3 |
| 20260509083123 | 64 | 220 | 5.0 | 11.0 | 0.00 | 0.00 | 0.00 | 58 | 1013.4 |
| 20260509082621 | 64 | 271 | 6.0 | 11.0 | 0.00 | 0.00 | 0.00 | 58 | 1013.4 |
| 20260509082122 | 64 | 260 | 6.0 | 11.0 | 0.00 | 0.00 | 0.00 | 59 | 1013.5 |
| 20260509081621 | 64 | 279 | 5.0 | 10.0 | 0.00 | 0.00 | 0.00 | 59 | 1013.5 |
| 20260509081122 | 64 | 243 | 4.0 | 8.0 | 0.00 | 0.00 | 0.00 | 60 | 1013.5 |
| 20260509080619 | 64 | 256 | 4.0 | 8.0 | 0.00 | 0.00 | 0.00 | 59 | 1013.5 |
| 20260509080117 | 63 | 269 | 4.0 | 8.0 | 0.00 | 0.00 | 0.00 | 60 | 1013.5 |
| 20260509075616 | 64 | 244 | 4.0 | 7.0 | 0.00 | 0.00 | 0.00 | 60 | 1013.5 |
| 20260509075116 | 64 | 249 | 4.0 | 8.0 | 0.00 | 0.00 | 0.00 | 60 | 1013.5 |
| 20260509074616 | 63 | 265 | 4.0 | 8.0 | 0.00 | 0.00 | 0.00 | 61 | 1013.5 |
| 20260509074115 | 63 | 246 | 4.0 | 8.0 | 0.00 | 0.00 | 0.00 | 61 | 1013.4 |
| 20260509073615 | 64 | 239 | 3.0 | 7.0 | 0.00 | 0.00 | 0.00 | 61 | 1013.5 |
| 20260509073112 | 64 | 227 | 4.0 | 7.0 | 0.00 | 0.00 | 0.00 | 60 | 1013.4 |
| 20260509072612 | 64 | 238 | 4.0 | 9.0 | 0.00 | 0.00 | 0.00 | 60 | 1013.5 |
| 20260509072110 | 65 | 241 | 4.0 | 9.0 | 0.00 | 0.00 | 0.00 | 59 | 1013.5 |
| 20260509071610 | 65 | 213 | 3.0 | 7.0 | 0.00 | 0.00 | 0.00 | 59 | 1013.6 |
| 20260509071109 | 65 | 249 | 4.0 | 9.0 | 0.00 | 0.00 | 0.00 | 59 | 1013.5 |
| 20260509070608 | 65 | 267 | 5.0 | 9.0 | 0.00 | 0.00 | 0.00 | 60 | 1013.5 |
| 20260509070105 | 64 | 257 | 4.0 | 7.0 | 0.00 | 0.00 | 0.00 | 60 | 1013.5 |
| 20260509065603 | 64 | 269 | 4.0 | 8.0 | 0.00 | 0.00 | 0.00 | 61 | 1013.6 |
| 20260509065322 | 64 | 267 | 4.0 | 8.0 | 0.00 | 0.00 | 0.00 | 62 | 1013.5 |
| 20260509064825 | 63 | 282 | 3.0 | 8.0 | 0.00 | 0.00 | 0.00 | 63 | 1013.5 |
| 20260509064321 | 63 | 243 | 2.0 | 6.0 | 0.00 | 0.00 | 0.00 | 64 | 1013.6 |
| 20260509063558 | 62 | 213 | 1.0 | 3.0 | 0.00 | 0.00 | 0.00 | 65 | 1013.6 |
| 20260509063058 | 63 | 215 | 1.0 | 3.0 | 0.00 | 0.00 | 0.00 | 64 | 1013.6 |
| 20260509062558 | 63 | 215 | 1.0 | 3.0 | 0.00 | 0.00 | 0.00 | 64 | 1013.6 |
| 20260509062533 | 64 | 215 | 1.0 | 4.0 | 0.00 | 0.00 | 0.00 | 63 | 1013.7 |
| 20260509061556 | 64 | 214 | 2.0 | 4.0 | 0.00 | 0.00 | 0.00 | 63 | 1013.7 |
| 20260509061054 | 63 | 216 | 1.0 | 3.0 | 0.00 | 0.00 | 0.00 | 64 | 1013.8 |
| 20260509060554 | 64 | 217 | 1.0 | 3.0 | 0.00 | 0.00 | 0.00 | 63 | 1013.8 |
| 20260509060051 | 64 | 217 | 1.0 | 3.0 | 0.00 | 0.00 | 0.00 | 63 | 1013.8 |
| 20260509055546 | 64 | 217 | 1.0 | 3.0 | 0.00 | 0.00 | 0.00 | 63 | 1013.9 |
| 20260509055308 | 64 | 218 | 1.0 | 4.0 | 0.00 | 0.00 | 0.00 | 63 | 1013.8 |
| 20260509054546 | 64 | 218 | 1.0 | 4.0 | 0.00 | 0.00 | 0.00 | 63 | 1013.8 |
| 20260509054054 | 64 | 236 | 1.0 | 2.0 | 0.00 | 0.00 | 0.00 | 62 | 1013.9 |
| 20260509053545 | 65 | 238 | 2.0 | 7.0 | 0.00 | 0.00 | 0.00 | 61 | 1013.9 |
| 20260509053046 | 66 | 238 | 2.0 | 7.0 | 0.00 | 0.00 | 0.00 | 59 | 1013.8 |
| 20260509052545 | 66 | 233 | 3.0 | 6.0 | 0.00 | 0.00 | 0.00 | 59 | 1013.8 |
| 20260509052042 | 66 | 232 | 2.0 | 5.0 | 0.00 | 0.00 | 0.00 | 60 | 1013.8 |
| 20260509051540 | 66 | 222 | 2.0 | 4.0 | 0.00 | 0.00 | 0.00 | 60 | 1013.8 |
| 20260509051310 | 65 | 221 | 2.0 | 4.0 | 0.00 | 0.00 | 0.00 | 60 | 1013.7 |
| 20260509050536 | 65 | 217 | 1.0 | 4.0 | 0.00 | 0.00 | 0.00 | 62 | 1013.8 |
| 20260509050035 | 65 | 213 | 1.0 | 3.0 | 0.00 | 0.00 | 0.00 | 62 | 1013.7 |
| 20260509050023 | 65 | 214 | 2.0 | 5.0 | 0.00 | 0.00 | 0.00 | 61 | 1013.6 |
| 20260509045030 | 67 | 215 | 2.0 | 5.0 | 0.00 | 0.00 | 0.00 | 59 | 1013.7 |
| 20260509044530 | 67 | 226 | 2.0 | 4.0 | 0.00 | 0.00 | 0.00 | 58 | 1013.6 |
| 20260509044027 | 67 | 228 | 1.0 | 3.0 | 0.00 | 0.00 | 0.00 | 58 | 1013.6 |
| 20260509043526 | 68 | 229 | 2.0 | 4.0 | 0.00 | 0.00 | 0.00 | 56 | 1013.5 |
| 20260509043023 | 69 | 229 | 2.0 | 7.0 | 0.00 | 0.00 | 0.00 | 56 | 1013.5 |
| 20260509042524 | 69 | 240 | 2.0 | 7.0 | 0.00 | 0.00 | 0.00 | 55 | 1013.5 |
| 20260509042023 | 69 | 227 | 3.0 | 9.0 | 0.00 | 0.00 | 0.00 | 54 | 1013.5 |
| 20260509041521 | 70 | 230 | 5.0 | 9.0 | 0.00 | 0.00 | 0.00 | 54 | 1013.4 |
| 20260509041021 | 70 | 277 | 5.0 | 9.0 | 0.00 | 0.00 | 0.00 | 54 | 1013.3 |
| 20260509040516 | 70 | 265 | 4.0 | 9.0 | 0.00 | 0.00 | 0.00 | 54 | 1013.4 |
| 20260509040017 | 70 | 269 | 2.0 | 6.0 | 0.00 | 0.00 | 0.00 | 53 | 1013.4 |
| 20260509035516 | 71 | 265 | 2.0 | 6.0 | 0.00 | 0.00 | 0.00 | 53 | 1013.4 |
| 20260509035016 | 71 | 265 | 1.0 | 4.0 | 0.00 | 0.00 | 0.00 | 53 | 1013.4 |
| 20260509034513 | 71 | 265 | 2.0 | 8.0 | 0.00 | 0.00 | 0.00 | 52 | 1013.3 |
| 20260509034014 | 71 | 265 | 3.0 | 8.0 | 0.00 | 0.00 | 0.00 | 52 | 1013.4 |
| 20260509033742 | 72 | 292 | 4.0 | 9.0 | 0.00 | 0.00 | 0.00 | 51 | 1013.3 |
| 20260509033012 | 72 | 263 | 4.0 | 9.0 | 0.00 | 0.00 | 0.00 | 51 | 1013.2 |
| 20260509032513 | 72 | 259 | 4.0 | 8.0 | 0.00 | 0.00 | 0.00 | 51 | 1013.2 |
| 20260509032009 | 72 | 270 | 4.0 | 12.0 | 0.00 | 0.00 | 0.00 | 51 | 1013.2 |
| 20260509031508 | 73 | 269 | 4.0 | 12.0 | 0.00 | 0.00 | 0.00 | 51 | 1013.1 |
| 20260509031010 | 73 | 268 | 4.0 | 9.0 | 0.00 | 0.00 | 0.00 | 51 | 1013.2 |
| 20260509030507 | 73 | 254 | 3.0 | 9.0 | 0.00 | 0.00 | 0.00 | 51 | 1013.1 |
| 20260509030226 | 74 | 267 | 3.0 | 8.0 | 0.00 | 0.00 | 0.00 | 51 | 1013.1 |
| 20260509025507 | 74 | 252 | 3.0 | 8.0 | 0.00 | 0.00 | 0.00 | 51 | 1013.1 |
| 20260509025007 | 74 | 271 | 4.0 | 9.0 | 0.00 | 0.00 | 0.00 | 50 | 1013.1 |
| 20260509024729 | 74 | 280 | 4.0 | 9.0 | 0.00 | 0.00 | 0.00 | 50 | 1013.1 |
| 20260509024005 | 75 | 240 | 4.0 | 8.0 | 0.00 | 0.00 | 0.00 | 50 | 1013.1 |
| 20260509023505 | 75 | 269 | 3.0 | 8.0 | 0.00 | 0.00 | 0.00 | 50 | 1013.1 |
| 20260509023004 | 75 | 270 | 3.0 | 7.0 | 0.00 | 0.00 | 0.00 | 50 | 1013.1 |
| 20260509022730 | 76 | 259 | 3.0 | 7.0 | 0.00 | 0.00 | 0.00 | 49 | 1013.1 |
| 20260509022004 | 76 | 269 | 3.0 | 8.0 | 0.00 | 0.00 | 0.00 | 49 | 1012.9 |
| 20260509021716 | 76 | 231 | 4.0 | 9.0 | 0.00 | 0.00 | 0.00 | 49 | 1013.0 |
| 20260509020955 | 77 | 250 | 5.0 | 9.0 | 0.00 | 0.00 | 0.00 | 48 | 1013.1 |
| 20260509020455 | 77 | 275 | 5.0 | 9.0 | 0.00 | 0.00 | 0.00 | 48 | 1013.1 |
| 20260509015953 | 77 | 241 | 5.0 | 9.0 | 0.00 | 0.00 | 0.00 | 48 | 1013.0 |
| 20260509015445 | 78 | 290 | 5.0 | 10.0 | 0.00 | 0.00 | 0.00 | 48 | 1013.1 |
| 20260509014940 | 78 | 288 | 6.0 | 12.0 | 0.00 | 0.00 | 0.00 | 48 | 1013.1 |
| 20260509014436 | 79 | 308 | 6.0 | 12.0 | 0.00 | 0.00 | 0.00 | 47 | 1013.2 |
| 20260509013935 | 79 | 307 | 7.0 | 12.0 | 0.00 | 0.00 | 0.00 | 47 | 1013.2 |
| 20260509013433 | 80 | 265 | 6.0 | 12.0 | 0.00 | 0.00 | 0.00 | 46 | 1013.2 |
| 20260509012929 | 80 | 259 | 6.0 | 11.0 | 0.00 | 0.00 | 0.00 | 46 | 1013.2 |
| 20260509012429 | 81 | 261 | 6.0 | 11.0 | 0.00 | 0.00 | 0.00 | 46 | 1013.2 |
| 20260509011928 | 81 | 268 | 6.0 | 12.0 | 0.00 | 0.00 | 0.00 | 45 | 1013.3 |
| 20260509011646 | 82 | 263 | 6.0 | 14.0 | 0.00 | 0.00 | 0.00 | 45 | 1013.2 |
| 20260509010925 | 82 | 286 | 6.0 | 14.0 | 0.00 | 0.00 | 0.00 | 44 | 1013.2 |
| 20260509010424 | 82 | 264 | 6.0 | 12.0 | 0.00 | 0.00 | 0.00 | 43 | 1013.1 |
| 20260509010150 | 83 | 294 | 6.0 | 11.0 | 0.00 | 0.00 | 0.00 | 43 | 1013.2 |
| 20260509005424 | 83 | 325 | 6.0 | 12.0 | 0.00 | 0.00 | 0.00 | 43 | 1013.2 |
| 20260509005420 | 83 | 243 | 7.0 | 12.0 | 0.00 | 0.00 | 0.00 | 42 | 1013.1 |
| 20260509004417 | 83 | 259 | 6.0 | 12.0 | 0.00 | 0.00 | 0.00 | 41 | 1013.2 |
| 20260509003917 | 84 | 240 | 5.0 | 11.0 | 0.00 | 0.00 | 0.00 | 41 | 1013.2 |
| 20260509003418 | 84 | 256 | 5.0 | 11.0 | 0.00 | 0.00 | 0.00 | 41 | 1013.2 |
| 20260509002917 | 84 | 275 | 5.0 | 11.0 | 0.00 | 0.00 | 0.00 | 41 | 1013.2 |
| 20260509002416 | 85 | 292 | 5.0 | 10.0 | 0.00 | 0.00 | 0.00 | 41 | 1013.2 |
| 20260509001914 | 85 | 259 | 5.0 | 10.0 | 0.00 | 0.00 | 0.00 | 41 | 1013.3 |
| 20260509001414 | 85 | 239 | 5.0 | 10.0 | 0.00 | 0.00 | 0.00 | 40 | 1013.4 |
| 20260509000914 | 85 | 268 | 5.0 | 10.0 | 0.00 | 0.00 | 0.00 | 40 | 1013.3 |
| 20260509000413 | 85 | 304 | 4.0 | 9.0 | 0.00 | 0.00 | 0.00 | 39 | 1013.3 |
| 20260509000146 | 85 | 266 | 4.0 | 10.0 | 0.00 | 0.00 | 0.00 | 39 | 1013.3 |
| 20260508235413 | 85 | 286 | 5.0 | 10.0 | 0.00 | 0.00 | 0.00 | 39 | 1013.3 |
| 20260508234914 | 85 | 255 | 5.0 | 10.0 | 0.00 | 0.00 | 0.00 | 39 | 1013.4 |
| 20260508234614 | 86 | 304 | 4.0 | 10.0 | 0.00 | 0.00 | 0.00 | 38 | 1013.5 |
| 20260508234500 | 86 | 290 | 4.0 | 9.0 | 0.00 | 0.00 | 0.00 | 39 | 1013.4 |
| 20260508233413 | 86 | 315 | 5.0 | 10.0 | 0.00 | 0.00 | 0.00 | 37 | 1013.6 |
| 20260508232910 | 86 | 243 | 5.0 | 10.0 | 0.00 | 0.00 | 0.00 | 38 | 1013.7 |
| 20260508232632 | 86 | 265 | 5.0 | 10.0 | 0.00 | 0.00 | 0.00 | 38 | 1013.8 |
| 20260508231909 | 86 | 282 | 5.0 | 10.0 | 0.00 | 0.00 | 0.00 | 38 | 1013.8 |
| 20260508231409 | 87 | 313 | 4.0 | 10.0 | 0.00 | 0.00 | 0.00 | 37 | 1013.8 |
| 20260508230909 | 87 | 232 | 3.0 | 9.0 | 0.00 | 0.00 | 0.00 | 37 | 1013.9 |
| 20260508230410 | 87 | 273 | 4.0 | 9.0 | 0.00 | 0.00 | 0.00 | 37 | 1013.9 |
| 20260508225908 | 87 | 210 | 4.0 | 10.0 | 0.00 | 0.00 | 0.00 | 37 | 1014.0 |
| 20260508225406 | 87 | 267 | 3.0 | 10.0 | 0.00 | 0.00 | 0.00 | 37 | 1014.1 |
| 20260508224906 | 86 | 257 | 3.0 | 8.0 | 0.00 | 0.00 | 0.00 | 36 | 1014.1 |
| 20260508224626 | 86 | 355 | 5.0 | 12.0 | 0.00 | 0.00 | 0.00 | 35 | 1014.2 |
| 20260508223904 | 86 | 279 | 6.0 | 12.0 | 0.00 | 0.00 | 0.00 | 36 | 1014.2 |
| 20260508223403 | 86 | 311 | 5.0 | 11.0 | 0.00 | 0.00 | 0.00 | 35 | 1014.4 |
| 20260508222901 | 86 | 290 | 5.0 | 11.0 | 0.00 | 0.00 | 0.00 | 35 | 1014.4 |
| 20260508222402 | 86 | 331 | 4.0 | 11.0 | 0.00 | 0.00 | 0.00 | 36 | 1014.5 |
| 20260508221900 | 86 | 329 | 3.0 | 9.0 | 0.00 | 0.00 | 0.00 | 35 | 1014.6 |
| 20260508221835 | 87 | 343 | 4.0 | 9.0 | 0.00 | 0.00 | 0.00 | 35 | 1014.6 |
| 20260508220859 | 87 | 14 | 5.0 | 12.0 | 0.00 | 0.00 | 0.00 | 35 | 1014.7 |
| 20260508220355 | 87 | 240 | 5.0 | 12.0 | 0.00 | 0.00 | 0.00 | 37 | 1014.7 |
| 20260508215848 | 87 | 277 | 4.0 | 9.0 | 0.00 | 0.00 | 0.00 | 37 | 1014.8 |
| 20260508215319 | 87 | 325 | 5.0 | 10.0 | 0.00 | 0.00 | 0.00 | 35 | 1014.8 |
| 20260508214817 | 87 | 314 | 5.0 | 10.0 | 0.00 | 0.00 | 0.00 | 35 | 1014.9 |
| 20260508214316 | 88 | 251 | 4.0 | 8.0 | 0.00 | 0.00 | 0.00 | 36 | 1014.9 |
| 20260508213814 | 87 | 351 | 4.0 | 10.0 | 0.00 | 0.00 | 0.00 | 36 | 1015.0 |
| 20260508213308 | 86 | 302 | 3.0 | 10.0 | 0.00 | 0.00 | 0.00 | 36 | 1015.0 |
| 20260508212809 | 86 | 11 | 3.0 | 8.0 | 0.00 | 0.00 | 0.00 | 37 | 1015.0 |
| 20260508212309 | 87 | 344 | 4.0 | 8.0 | 0.00 | 0.00 | 0.00 | 36 | 1015.1 |
| 20260508211808 | 85 | 317 | 3.0 | 8.0 | 0.00 | 0.00 | 0.00 | 38 | 1015.2 |
| 20260508211529 | 85 | 81 | 3.0 | 7.0 | 0.00 | 0.00 | 0.00 | 39 | 1015.2 |
| 20260508211029 | 86 | 280 | 4.0 | 11.0 | 0.00 | 0.00 | 0.00 | 35 | 1015.4 |
| 20260508210308 | 86 | 273 | 5.0 | 11.0 | 0.00 | 0.00 | 0.00 | 35 | 1015.4 |
| 20260508205809 | 85 | 317 | 4.0 | 9.0 | 0.00 | 0.00 | 0.00 | 37 | 1015.5 |
| 20260508205309 | 85 | 330 | 4.0 | 9.0 | 0.00 | 0.00 | 0.00 | 40 | 1015.5 |
| 20260508204809 | 85 | 50 | 3.0 | 8.0 | 0.00 | 0.00 | 0.00 | 37 | 1015.5 |
| 20260508204310 | 85 | 238 | 3.0 | 10.0 | 0.00 | 0.00 | 0.00 | 38 | 1015.6 |
| 20260508203804 | 85 | 316 | 4.0 | 10.0 | 0.00 | 0.00 | 0.00 | 36 | 1015.7 |
| 20260508203303 | 86 | 202 | 3.0 | 8.0 | 0.00 | 0.00 | 0.00 | 36 | 1015.6 |
| 20260508202803 | 85 | 258 | 3.0 | 8.0 | 0.00 | 0.00 | 0.00 | 36 | 1015.7 |
| 20260508202307 | 84 | 98 | 4.0 | 7.0 | 0.00 | 0.00 | 0.00 | 36 | 1015.7 |
| 20260508202023 | 85 | 311 | 4.0 | 9.0 | 0.00 | 0.00 | 0.00 | 36 | 1015.7 |
| 20260508201305 | 85 | 285 | 3.0 | 9.0 | 0.00 | 0.00 | 0.00 | 36 | 1015.8 |
| 20260508200800 | 83 | 71 | 2.0 | 8.0 | 0.00 | 0.00 | 0.00 | 37 | 1015.8 |
| 20260508200311 | 84 | 298 | 3.0 | 9.0 | 0.00 | 0.00 | 0.00 | 36 | 1015.9 |
| 20260508200021 | 83 | 328 | 4.0 | 9.0 | 0.00 | 0.00 | 0.00 | 37 | 1016.0 |
| 20260508195259 | 83 | 308 | 4.0 | 9.0 | 0.00 | 0.00 | 0.00 | 38 | 1016.1 |
| 20260508194758 | 83 | 347 | 3.0 | 7.0 | 0.00 | 0.00 | 0.00 | 38 | 1016.1 |
| 20260508194257 | 83 | 284 | 3.0 | 7.0 | 0.00 | 0.00 | 0.00 | 38 | 1016.2 |
| 20260508193757 | 82 | 355 | 3.0 | 5.0 | 0.00 | 0.00 | 0.00 | 38 | 1016.2 |
| 20260508193257 | 83 | 355 | 3.0 | 9.0 | 0.00 | 0.00 | 0.00 | 37 | 1016.2 |
| 20260508192745 | 82 | 319 | 3.0 | 9.0 | 0.00 | 0.00 | 0.00 | 38 | 1016.2 |
| 20260508192245 | 83 | 306 | 3.0 | 8.0 | 0.00 | 0.00 | 0.00 | 38 | 1016.2 |
| 20260508191743 | 83 | 265 | 3.0 | 9.0 | 0.00 | 0.00 | 0.00 | 36 | 1016.4 |
| 20260508191506 | 83 | 273 | 3.0 | 9.0 | 0.00 | 0.00 | 0.00 | 38 | 1016.4 |
| 20260508190737 | 83 | 291 | 3.0 | 8.0 | 0.00 | 0.00 | 0.00 | 37 | 1016.5 |
| 20260508190500 | 82 | 227 | 3.0 | 8.0 | 0.00 | 0.00 | 0.00 | 39 | 1016.4 |
| 20260508185735 | 81 | 292 | 2.0 | 7.0 | 0.00 | 0.00 | 0.00 | 38 | 1016.5 |
| 20260508185234 | 81 | 309 | 2.0 | 8.0 | 0.00 | 0.00 | 0.00 | 40 | 1016.6 |
| 20260508184734 | 81 | 90 | 2.0 | 8.0 | 0.00 | 0.00 | 0.00 | 40 | 1016.5 |